| time (UTC) | temp C | wind direction | speed KPH | gust KPH | rain 1hr cm | rain 24hr cm | rain mn cm | humidity % | barometer mb |
| 20260508050009 | 2 | 360 | 0.0 | 3.2 | 0.00 | 0.28 | 0.00 | 84 | 1006.1 |
| 20260508045503 | 2 | 360 | 0.0 | 4.8 | 0.00 | 0.28 | 0.00 | 82 | 1006.1 |
| 20260508045006 | 2 | 360 | 0.0 | 4.8 | 0.00 | 0.28 | 0.00 | 82 | 1006.1 |
| 20260508044510 | 1 | 360 | 0.0 | 3.2 | 0.00 | 0.28 | 0.00 | 83 | 1006.0 |
| 20260508044007 | 1 | 360 | 0.0 | 3.2 | 0.00 | 0.30 | 0.00 | 85 | 1006.1 |
| 20260508043508 | 1 | 360 | 0.0 | 3.2 | 0.00 | 0.30 | 0.00 | 85 | 1006.1 |
| 20260508043016 | 2 | 360 | 0.0 | 3.2 | 0.00 | 0.33 | 0.00 | 85 | 1006.1 |
| 20260508042507 | 2 | 360 | 0.0 | 3.2 | 0.00 | 0.36 | 0.00 | 84 | 1006.1 |
| 20260508042010 | 2 | 360 | 0.0 | 3.2 | 0.00 | 0.36 | 0.00 | 84 | 1006.2 |
| 20260508041519 | 2 | 360 | 0.0 | 3.2 | 0.00 | 0.41 | 0.00 | 84 | 1006.2 |
| 20260508041011 | 2 | 360 | 0.0 | 3.2 | 0.00 | 0.48 | 0.00 | 83 | 1006.3 |
| 20260508040509 | 2 | 360 | 0.0 | 3.2 | 0.00 | 0.48 | 0.00 | 83 | 1006.3 |
| 20260508040018 | 2 | 360 | 0.0 | 3.2 | 0.00 | 0.51 | 0.00 | 83 | 1006.4 |
| 20260508035504 | 2 | 360 | 0.0 | 3.2 | 0.00 | 0.51 | 0.51 | 82 | 1006.3 |
| 20260508035004 | 2 | 360 | 0.0 | 3.2 | 0.00 | 0.53 | 0.51 | 82 | 1006.4 |
| 20260508034508 | 2 | 360 | 0.0 | 3.2 | 0.00 | 0.56 | 0.51 | 81 | 1006.4 |
| 20260508034004 | 2 | 360 | 0.0 | 1.6 | 0.00 | 0.56 | 0.51 | 79 | 1006.4 |
| 20260508033507 | 2 | 360 | 0.0 | 3.2 | 0.00 | 0.58 | 0.51 | 79 | 1006.3 |
| 20260508033011 | 2 | 360 | 0.0 | 3.2 | 0.00 | 0.58 | 0.51 | 77 | 1006.4 |
| 20260508032512 | 3 | 360 | 0.0 | 3.2 | 0.00 | 0.61 | 0.51 | 77 | 1006.3 |
| 20260508032010 | 3 | 360 | 0.0 | 3.2 | 0.00 | 0.61 | 0.51 | 74 | 1006.4 |
| 20260508031519 | 3 | 360 | 0.0 | 3.2 | 0.00 | 0.64 | 0.51 | 75 | 1006.4 |
| 20260508031007 | 3 | 360 | 0.0 | 3.2 | 0.00 | 0.66 | 0.51 | 75 | 1006.4 |
| 20260508030511 | 3 | 360 | 0.0 | 3.2 | 0.00 | 0.69 | 0.51 | 75 | 1006.3 |
| 20260508030023 | 3 | 360 | 0.0 | 3.2 | 0.00 | 0.69 | 0.51 | 74 | 1006.3 |
| 20260508025511 | 3 | 360 | 0.0 | 3.2 | 0.00 | 0.71 | 0.51 | 74 | 1006.3 |
| 20260508025009 | 3 | 360 | 0.0 | 3.2 | 0.00 | 0.71 | 0.51 | 72 | 1006.2 |
| 20260508024530 | 4 | 360 | 0.0 | 3.2 | 0.00 | 0.71 | 0.51 | 72 | 1006.2 |
| 20260508024003 | 4 | 360 | 0.0 | 3.2 | 0.00 | 0.74 | 0.51 | 73 | 1006.2 |
| 20260508023507 | 5 | 360 | 0.0 | 3.2 | 0.00 | 0.76 | 0.51 | 72 | 1006.4 |
| 20260508023015 | 5 | 360 | 0.0 | 3.2 | 0.00 | 0.76 | 0.51 | 68 | 1006.4 |
| 20260508022504 | 5 | 360 | 0.0 | 3.2 | 0.00 | 0.79 | 0.51 | 67 | 1006.4 |
| 20260508022007 | 6 | 360 | 0.0 | 4.8 | 0.00 | 0.81 | 0.51 | 63 | 1006.4 |
| 20260508021516 | 6 | 360 | 1.6 | 4.8 | 0.00 | 0.84 | 0.51 | 59 | 1006.3 |
| 20260508021007 | 6 | 360 | 0.0 | 3.2 | 0.00 | 0.86 | 0.51 | 57 | 1006.3 |
| 20260508020509 | 6 | 360 | 0.0 | 9.7 | 0.00 | 0.91 | 0.51 | 59 | 1006.3 |
| 20260508020021 | 6 | 360 | 3.2 | 9.7 | 0.00 | 0.97 | 0.51 | 54 | 1006.3 |
| 20260508015507 | 6 | 360 | 3.2 | 9.7 | 0.00 | 1.04 | 0.51 | 54 | 1006.3 |
| 20260508015007 | 6 | 360 | 1.6 | 12.9 | 0.00 | 1.04 | 0.51 | 56 | 1006.3 |
| 20260508014522 | 6 | 360 | 1.6 | 12.9 | 0.00 | 1.07 | 0.51 | 57 | 1006.3 |
| 20260508014011 | 6 | 360 | 1.6 | 4.8 | 0.00 | 1.09 | 0.51 | 57 | 1006.3 |
| 20260508013510 | 6 | 360 | 0.0 | 3.2 | 0.00 | 1.12 | 0.51 | 57 | 1006.3 |
| 20260508013026 | 6 | 360 | 0.0 | 3.2 | 0.00 | 1.14 | 0.51 | 56 | 1006.2 |
| 20260508012503 | 6 | 360 | 1.6 | 8.0 | 0.00 | 1.17 | 0.51 | 57 | 1006.2 |
| 20260508012007 | 7 | 360 | 0.0 | 8.0 | 0.00 | 1.22 | 0.51 | 58 | 1006.2 |
| 20260508011517 | 7 | 360 | 1.6 | 6.4 | 0.00 | 1.22 | 0.51 | 54 | 1006.2 |
| 20260508011010 | 7 | 360 | 0.0 | 4.8 | 0.00 | 1.22 | 0.51 | 53 | 1006.1 |
| 20260508010507 | 7 | 360 | 0.0 | 4.8 | 0.00 | 1.22 | 0.51 | 59 | 1006.2 |
| 20260508010018 | 7 | 360 | 1.6 | 4.8 | 0.00 | 1.22 | 0.51 | 50 | 1006.2 |
| 20260508005508 | 7 | 360 | 1.6 | 4.8 | 0.00 | 1.22 | 0.51 | 54 | 1006.2 |
| 20260508005007 | 8 | 360 | 1.6 | 8.0 | 0.00 | 1.22 | 0.51 | 54 | 1006.1 |
| 20260508004527 | 8 | 360 | 0.0 | 8.0 | 0.00 | 1.22 | 0.51 | 53 | 1006.1 |
| 20260508004009 | 8 | 360 | 1.6 | 19.3 | 0.00 | 1.24 | 0.51 | 51 | 1005.9 |
| 20260508003508 | 8 | 360 | 6.4 | 19.3 | 0.00 | 1.24 | 0.51 | 51 | 1005.8 |
| 20260508003024 | 8 | 360 | 4.8 | 14.5 | 0.00 | 1.24 | 0.51 | 49 | 1005.7 |
| 20260508002510 | 8 | 360 | 3.2 | 19.3 | 0.00 | 1.24 | 0.51 | 50 | 1005.7 |
| 20260508002009 | 8 | 360 | 3.2 | 19.3 | 0.00 | 1.24 | 0.51 | 51 | 1005.7 |
| 20260508001527 | 8 | 360 | 6.4 | 12.9 | 0.00 | 1.24 | 0.51 | 53 | 1005.5 |
| 20260508001007 | 8 | 360 | 4.8 | 12.9 | 0.00 | 1.24 | 0.51 | 51 | 1005.4 |
| 20260508000505 | 8 | 360 | 4.8 | 20.9 | 0.00 | 1.24 | 0.51 | 50 | 1005.5 |
| 20260508000012 | 8 | 360 | 6.4 | 20.9 | 0.00 | 1.24 | 0.51 | 51 | 1005.4 |
| 20260507235507 | 9 | 360 | 6.4 | 20.9 | 0.00 | 1.24 | 0.51 | 51 | 1005.4 |
| 20260507235006 | 9 | 360 | 6.4 | 19.3 | 0.00 | 1.24 | 0.51 | 51 | 1005.3 |
| 20260507234521 | 9 | 360 | 6.4 | 16.1 | 0.00 | 1.24 | 0.51 | 50 | 1005.3 |
| 20260507234010 | 10 | 360 | 4.8 | 25.7 | 0.00 | 1.24 | 0.51 | 50 | 1005.3 |
| 20260507233516 | 10 | 360 | 11.3 | 25.7 | 0.00 | 1.24 | 0.51 | 48 | 1005.2 |
| 20260507233025 | 10 | 360 | 6.4 | 19.3 | 0.00 | 1.24 | 0.51 | 48 | 1005.2 |
| 20260507232511 | 10 | 360 | 4.8 | 17.7 | 0.00 | 1.24 | 0.51 | 47 | 1005.1 |
| 20260507232010 | 10 | 360 | 6.4 | 22.5 | 0.00 | 1.24 | 0.51 | 47 | 1004.9 |
| 20260507231537 | 10 | 360 | 4.8 | 22.5 | 0.00 | 1.24 | 0.51 | 48 | 1004.8 |
| 20260507231014 | 10 | 360 | 11.3 | 24.1 | 0.00 | 1.24 | 0.51 | 46 | 1004.8 |
| 20260507230510 | 11 | 360 | 11.3 | 24.1 | 0.00 | 1.24 | 0.51 | 45 | 1004.6 |
| 20260507230029 | 11 | 360 | 6.4 | 17.7 | 0.00 | 1.24 | 0.51 | 47 | 1004.5 |
| 20260507225507 | 11 | 360 | 6.4 | 17.7 | 0.00 | 1.24 | 0.51 | 44 | 1004.3 |
| 20260507225007 | 11 | 360 | 4.8 | 24.1 | 0.00 | 1.24 | 0.51 | 44 | 1004.3 |
| 20260507224518 | 11 | 360 | 8.0 | 24.1 | 0.00 | 1.27 | 0.51 | 43 | 1004.2 |
| 20260507224008 | 12 | 360 | 4.8 | 16.1 | 0.00 | 1.30 | 0.51 | 45 | 1004.1 |
| 20260507223507 | 12 | 360 | 3.2 | 17.7 | 0.00 | 1.30 | 0.51 | 44 | 1004.1 |
| 20260507223020 | 12 | 360 | 4.8 | 17.7 | 0.00 | 1.32 | 0.51 | 42 | 1004.0 |
| 20260507222503 | 12 | 360 | 8.0 | 17.7 | 0.00 | 1.32 | 0.51 | 42 | 1003.9 |
| 20260507222002 | 13 | 360 | 6.4 | 20.9 | 0.00 | 1.32 | 0.51 | 44 | 1003.9 |
| 20260507221506 | 13 | 360 | 8.0 | 20.9 | 0.00 | 1.32 | 0.51 | 42 | 1003.9 |
| 20260507221001 | 13 | 360 | 9.7 | 20.9 | 0.00 | 1.37 | 0.51 | 44 | 1003.7 |
| 20260507220506 | 13 | 360 | 3.2 | 16.1 | 0.00 | 1.37 | 0.51 | 47 | 1003.7 |
| 20260507220012 | 13 | 360 | 3.2 | 16.1 | 0.00 | 1.40 | 0.51 | 45 | 1003.7 |
| 20260507215510 | 13 | 360 | 4.8 | 19.3 | 0.00 | 1.40 | 0.51 | 45 | 1003.6 |
| 20260507215004 | 13 | 360 | 1.6 | 19.3 | 0.00 | 1.42 | 0.51 | 48 | 1003.6 |
| 20260507214512 | 13 | 360 | 4.8 | 14.5 | 0.00 | 1.42 | 0.51 | 48 | 1003.6 |
| 20260507214007 | 13 | 360 | 3.2 | 17.7 | 0.00 | 1.42 | 0.51 | 45 | 1003.5 |
| 20260507213507 | 13 | 360 | 8.0 | 22.5 | 0.00 | 1.45 | 0.51 | 44 | 1003.4 |
| 20260507213026 | 14 | 17 | 9.7 | 22.5 | 0.00 | 1.47 | 0.51 | 43 | 1003.3 |
| 20260507212508 | 15 | 339 | 6.4 | 19.3 | 0.00 | 1.47 | 0.51 | 43 | 1003.2 |
| 20260507212004 | 15 | 360 | 6.4 | 17.7 | 0.00 | 1.47 | 0.51 | 40 | 1002.9 |
| 20260507211505 | 16 | 360 | 6.4 | 19.3 | 0.00 | 1.52 | 0.51 | 38 | 1002.9 |
| 20260507211004 | 16 | 360 | 8.0 | 17.7 | 0.00 | 1.55 | 0.51 | 37 | 1002.8 |
| 20260507210506 | 16 | 360 | 4.8 | 19.3 | 0.00 | 1.55 | 0.51 | 37 | 1002.8 |
| 20260507210006 | 16 | 360 | 4.8 | 19.3 | 0.00 | 1.57 | 0.51 | 38 | 1002.7 |
| 20260507205507 | 16 | 19 | 8.0 | 19.3 | 0.00 | 1.57 | 0.51 | 37 | 1002.7 |
| 20260507205009 | 16 | 360 | 8.0 | 19.3 | 0.00 | 1.60 | 0.51 | 35 | 1002.6 |
| 20260507204509 | 16 | 360 | 6.4 | 22.5 | 0.00 | 1.60 | 0.51 | 35 | 1002.5 |
| 20260507204004 | 16 | 360 | 3.2 | 25.7 | 0.00 | 1.60 | 0.51 | 34 | 1002.4 |
| 20260507203507 | 16 | 360 | 8.0 | 25.7 | 0.00 | 1.63 | 0.51 | 33 | 1002.4 |
| 20260507203014 | 17 | 360 | 8.0 | 17.7 | 0.00 | 1.63 | 0.51 | 34 | 1002.3 |
| 20260507202509 | 16 | 360 | 4.8 | 22.5 | 0.00 | 1.65 | 0.51 | 37 | 1002.4 |
| 20260507202009 | 17 | 19 | 6.4 | 25.7 | 0.00 | 1.68 | 0.51 | 38 | 1002.4 |
| 20260507201521 | 17 | 22 | 4.8 | 25.7 | 0.00 | 1.70 | 0.51 | 38 | 1002.3 |
| 20260507201007 | 17 | 360 | 4.8 | 14.5 | 0.00 | 1.70 | 0.51 | 42 | 1002.3 |
| 20260507200504 | 17 | 360 | 4.8 | 16.1 | 0.00 | 1.73 | 0.51 | 38 | 1002.3 |
| 20260507200006 | 17 | 96 | 3.2 | 16.1 | 0.00 | 1.75 | 0.51 | 39 | 1002.4 |
| 20260507195504 | 17 | 360 | 3.2 | 20.9 | 0.00 | 1.78 | 0.51 | 41 | 1002.5 |
| 20260507195002 | 16 | 292 | 6.4 | 20.9 | 0.00 | 1.80 | 0.51 | 41 | 1002.4 |
| 20260507194526 | 16 | 360 | 3.2 | 17.7 | 0.00 | 1.83 | 0.51 | 43 | 1002.4 |
| 20260507194007 | 16 | 360 | 8.0 | 17.7 | 0.00 | 1.85 | 0.51 | 47 | 1002.4 |
| 20260507193506 | 15 | 360 | 8.0 | 19.3 | 0.00 | 1.88 | 0.51 | 49 | 1002.4 |
| 20260507193018 | 15 | 360 | 4.8 | 19.3 | 0.00 | 1.91 | 0.51 | 45 | 1002.5 |
| 20260507192507 | 16 | 296 | 4.8 | 17.7 | 0.00 | 1.93 | 0.51 | 47 | 1002.5 |
| 20260507192011 | 16 | 284 | 3.2 | 17.7 | 0.00 | 1.96 | 0.51 | 49 | 1002.4 |
| 20260507191518 | 16 | 321 | 4.8 | 20.9 | 0.00 | 1.98 | 0.51 | 46 | 1002.5 |
| 20260507191007 | 16 | 148 | 4.8 | 20.9 | 0.00 | 2.01 | 0.51 | 47 | 1002.5 |
| 20260507190507 | 15 | 360 | 6.4 | 24.1 | 0.00 | 2.03 | 0.51 | 48 | 1002.5 |
| 20260507190024 | 15 | 360 | 6.4 | 24.1 | 0.00 | 2.06 | 0.51 | 46 | 1002.4 |
| 20260507185503 | 15 | 360 | 6.4 | 24.1 | 0.00 | 2.11 | 0.51 | 46 | 1002.4 |
| 20260507185003 | 16 | 360 | 4.8 | 19.3 | 0.00 | 2.16 | 0.51 | 47 | 1002.4 |
| 20260507184506 | 16 | 360 | 4.8 | 17.7 | 0.00 | 2.18 | 0.51 | 46 | 1002.4 |
| 20260507184006 | 16 | 30 | 4.8 | 14.5 | 0.00 | 2.21 | 0.51 | 47 | 1002.3 |
| 20260507183504 | 16 | 360 | 4.8 | 8.0 | 0.00 | 2.24 | 0.51 | 50 | 1002.4 |
| 20260507183028 | 15 | 360 | 3.2 | 16.1 | 0.00 | 2.29 | 0.51 | 49 | 1002.5 |
| 20260507182507 | 15 | 360 | 3.2 | 19.3 | 0.00 | 2.29 | 0.51 | 48 | 1002.6 |
| 20260507182012 | 15 | 360 | 6.4 | 19.3 | 0.00 | 2.31 | 0.51 | 48 | 1002.6 |
| 20260507181527 | 15 | 360 | 3.2 | 12.9 | 0.00 | 2.34 | 0.51 | 50 | 1002.7 |
| 20260507181008 | 15 | 360 | 4.8 | 16.1 | 0.00 | 2.36 | 0.51 | 50 | 1002.6 |
| 20260507180505 | 15 | 360 | 4.8 | 16.1 | 0.00 | 2.36 | 0.51 | 51 | 1002.6 |
| 20260507180033 | 15 | 360 | 4.8 | 16.1 | 0.00 | 2.36 | 0.51 | 51 | 1002.7 |
| 20260507175509 | 15 | 360 | 4.8 | 14.5 | 0.00 | 2.39 | 0.51 | 49 | 1002.7 |
| 20260507175009 | 16 | 360 | 3.2 | 16.1 | 0.00 | 2.41 | 0.51 | 46 | 1002.7 |
| 20260507174532 | 16 | 360 | 6.4 | 16.1 | 0.00 | 2.41 | 0.51 | 48 | 1002.6 |
| 20260507174004 | 16 | 360 | 6.4 | 14.5 | 0.00 | 2.41 | 0.51 | 47 | 1002.6 |
| 20260507173505 | 16 | 55 | 3.2 | 9.7 | 0.00 | 2.41 | 0.51 | 49 | 1002.8 |
| 20260507173010 | 15 | 360 | 4.8 | 9.7 | 0.00 | 2.41 | 0.51 | 59 | 1002.9 |
| 20260507172506 | 15 | 360 | 1.6 | 8.0 | 0.00 | 2.41 | 0.51 | 53 | 1002.9 |
| 20260507172008 | 15 | 360 | 1.6 | 8.0 | 0.00 | 2.41 | 0.51 | 52 | 1002.9 |
| 20260507171513 | 15 | 360 | 3.2 | 6.4 | 0.00 | 2.41 | 0.51 | 53 | 1003.0 |
| 20260507171009 | 15 | 360 | 3.2 | 9.7 | 0.00 | 2.41 | 0.51 | 53 | 1003.1 |
| 20260507170506 | 15 | 199 | 3.2 | 12.9 | 0.00 | 2.44 | 0.51 | 52 | 1003.1 |
| 20260507170021 | 15 | 140 | 1.6 | 12.9 | 0.00 | 2.44 | 0.51 | 52 | 1003.1 |
| 20260507165506 | 16 | 360 | 3.2 | 16.1 | 0.00 | 2.44 | 0.51 | 52 | 1003.1 |
| 20260507165007 | 16 | 360 | 3.2 | 16.1 | 0.00 | 2.44 | 0.51 | 51 | 1003.1 |
| 20260507164520 | 16 | 360 | 4.8 | 14.5 | 0.00 | 2.44 | 0.51 | 51 | 1003.1 |
| 20260507164009 | 16 | 360 | 3.2 | 9.7 | 0.00 | 2.46 | 0.51 | 51 | 1003.1 |
| 20260507163507 | 16 | 360 | 3.2 | 17.7 | 0.00 | 2.46 | 0.51 | 51 | 1003.3 |
| 20260507163026 | 16 | 360 | 4.8 | 17.7 | 0.00 | 2.46 | 0.51 | 54 | 1003.3 |
| 20260507162506 | 16 | 360 | 1.6 | 14.5 | 0.00 | 2.46 | 0.51 | 51 | 1003.4 |
| 20260507162006 | 16 | 360 | 6.4 | 14.5 | 0.00 | 2.46 | 0.51 | 53 | 1003.4 |
| 20260507161523 | 15 | 360 | 3.2 | 12.9 | 0.00 | 2.46 | 0.51 | 53 | 1003.4 |
| 20260507161007 | 15 | 360 | 3.2 | 12.9 | 0.00 | 2.46 | 0.51 | 51 | 1003.6 |
| 20260507160510 | 15 | 328 | 3.2 | 9.7 | 0.00 | 2.46 | 0.51 | 57 | 1003.6 |
| 20260507160024 | 15 | 198 | 1.6 | 9.7 | 0.00 | 2.46 | 0.51 | 60 | 1003.8 |
| 20260507155505 | 14 | 238 | 3.2 | 9.7 | 0.00 | 2.46 | 0.51 | 57 | 1004.0 |
| 20260507155011 | 14 | 360 | 3.2 | 6.4 | 0.00 | 2.46 | 0.51 | 58 | 1004.1 |
| 20260507154530 | 14 | 360 | 3.2 | 6.4 | 0.00 | 2.46 | 0.51 | 59 | 1004.1 |
| 20260507154011 | 14 | 360 | 3.2 | 6.4 | 0.00 | 2.46 | 0.51 | 58 | 1004.0 |
| 20260507153510 | 13 | 360 | 0.0 | 4.8 | 0.00 | 2.46 | 0.51 | 62 | 1004.1 |
| 20260507153025 | 13 | 360 | 1.6 | 6.4 | 0.00 | 2.46 | 0.51 | 62 | 1004.2 |
| 20260507152511 | 13 | 360 | 1.6 | 6.4 | 0.00 | 2.46 | 0.51 | 62 | 1004.2 |
| 20260507152009 | 14 | 351 | 1.6 | 6.4 | 0.00 | 2.46 | 0.51 | 61 | 1004.2 |
| 20260507151537 | 14 | 360 | 3.2 | 6.4 | 0.00 | 2.46 | 0.51 | 61 | 1004.1 |
| 20260507151006 | 14 | 244 | 1.6 | 6.4 | 0.00 | 2.46 | 0.51 | 62 | 1004.2 |
| 20260507150507 | 14 | 178 | 1.6 | 6.4 | 0.00 | 2.46 | 0.51 | 62 | 1004.4 |
| 20260507150015 | 14 | 301 | 1.6 | 4.8 | 0.00 | 2.46 | 0.51 | 62 | 1004.5 |
| 20260507145506 | 14 | 360 | 1.6 | 4.8 | 0.00 | 2.46 | 0.51 | 60 | 1004.5 |
| 20260507145007 | 15 | 360 | 1.6 | 4.8 | 0.00 | 2.46 | 0.51 | 59 | 1004.5 |
| 20260507144521 | 15 | 360 | 1.6 | 4.8 | 0.00 | 2.46 | 0.51 | 61 | 1004.5 |
| 20260507144009 | 15 | 20 | 1.6 | 6.4 | 0.00 | 2.46 | 0.51 | 63 | 1004.5 |
| 20260507143510 | 14 | 72 | 1.6 | 4.8 | 0.00 | 2.46 | 0.51 | 62 | 1004.6 |
| 20260507143023 | 14 | 360 | 1.6 | 4.8 | 0.00 | 2.46 | 0.51 | 66 | 1004.7 |
| 20260507142510 | 13 | 360 | 1.6 | 4.8 | 0.00 | 2.46 | 0.51 | 72 | 1004.7 |
| 20260507142010 | 13 | 360 | 1.6 | 4.8 | 0.00 | 2.46 | 0.51 | 67 | 1004.7 |
| 20260507141530 | 13 | 360 | 1.6 | 4.8 | 0.00 | 2.46 | 0.51 | 66 | 1004.8 |
| 20260507141012 | 13 | 360 | 1.6 | 4.8 | 0.00 | 2.46 | 0.51 | 66 | 1004.8 |
| 20260507140511 | 13 | 360 | 1.6 | 4.8 | 0.00 | 2.46 | 0.51 | 69 | 1004.9 |
| 20260507140027 | 12 | 360 | 3.2 | 6.4 | 0.00 | 2.46 | 0.51 | 74 | 1005.0 |
| 20260507135506 | 12 | 360 | 3.2 | 8.0 | 0.00 | 2.46 | 0.51 | 71 | 1005.0 |
| 20260507135009 | 12 | 360 | 1.6 | 9.7 | 0.00 | 2.46 | 0.51 | 72 | 1005.0 |
| 20260507134529 | 12 | 360 | 1.6 | 9.7 | 0.00 | 2.46 | 0.51 | 74 | 1005.0 |
| 20260507134007 | 11 | 360 | 1.6 | 9.7 | 0.00 | 2.46 | 0.51 | 75 | 1005.0 |
| 20260507133512 | 11 | 360 | 3.2 | 12.9 | 0.00 | 2.46 | 0.51 | 75 | 1005.1 |
| 20260507133024 | 11 | 360 | 3.2 | 12.9 | 0.00 | 2.46 | 0.51 | 74 | 1005.1 |
| 20260507132503 | 11 | 360 | 1.6 | 9.7 | 0.00 | 2.46 | 0.51 | 75 | 1005.1 |
| 20260507132003 | 11 | 360 | 3.2 | 17.7 | 0.00 | 2.46 | 0.51 | 75 | 1005.0 |
| 20260507131517 | 11 | 360 | 1.6 | 17.7 | 0.00 | 2.46 | 0.51 | 78 | 1005.1 |
| 20260507131003 | 11 | 360 | 3.2 | 12.9 | 0.03 | 2.46 | 0.51 | 75 | 1005.1 |
| 20260507130508 | 10 | 360 | 3.2 | 12.9 | 0.03 | 2.46 | 0.51 | 76 | 1005.1 |
| 20260507130012 | 10 | 360 | 4.8 | 12.9 | 0.03 | 2.46 | 0.51 | 77 | 1005.3 |
| 20260507125509 | 10 | 360 | 6.4 | 12.9 | 0.03 | 2.46 | 0.51 | 77 | 1005.4 |
| 20260507125011 | 10 | 360 | 1.6 | 12.9 | 0.03 | 2.46 | 0.51 | 79 | 1005.2 |
| 20260507124517 | 10 | 360 | 6.4 | 12.9 | 0.03 | 2.46 | 0.51 | 78 | 1005.1 |
| 20260507124006 | 10 | 360 | 6.4 | 12.9 | 0.03 | 2.46 | 0.51 | 78 | 1005.2 |
| 20260507123510 | 10 | 360 | 4.8 | 12.9 | 0.03 | 2.46 | 0.51 | 80 | 1005.3 |
| 20260507123021 | 10 | 360 | 3.2 | 8.0 | 0.03 | 2.46 | 0.51 | 80 | 1005.3 |
| 20260507122504 | 10 | 360 | 3.2 | 8.0 | 0.03 | 2.46 | 0.51 | 85 | 1005.5 |
| 20260507122003 | 10 | 360 | 1.6 | 6.4 | 0.03 | 2.46 | 0.51 | 84 | 1005.7 |
| 20260507121507 | 9 | 360 | 1.6 | 6.4 | 0.03 | 2.46 | 0.51 | 87 | 1005.9 |
| 20260507121003 | 8 | 360 | 1.6 | 9.7 | 0.00 | 2.44 | 0.48 | 85 | 1005.9 |
| 20260507120507 | 8 | 360 | 4.8 | 9.7 | 0.00 | 2.44 | 0.48 | 85 | 1006.0 |
| 20260507120010 | 8 | 360 | 4.8 | 12.9 | 0.00 | 2.44 | 0.48 | 86 | 1005.9 |
| 20260507115506 | 8 | 360 | 3.2 | 12.9 | 0.00 | 2.44 | 0.48 | 87 | 1005.8 |
| 20260507115007 | 8 | 360 | 6.4 | 12.9 | 0.00 | 2.44 | 0.48 | 88 | 1005.6 |
| 20260507114525 | 8 | 360 | 1.6 | 8.0 | 0.00 | 2.44 | 0.48 | 89 | 1005.5 |
| 20260507114007 | 8 | 360 | 1.6 | 8.0 | 0.00 | 2.44 | 0.48 | 89 | 1005.6 |
| 20260507113507 | 7 | 360 | 3.2 | 8.0 | 0.00 | 2.44 | 0.48 | 90 | 1005.7 |
| 20260507113019 | 7 | 360 | 1.6 | 4.8 | 0.00 | 2.44 | 0.48 | 92 | 1005.8 |
| 20260507112508 | 7 | 360 | 0.0 | 4.8 | 0.00 | 2.44 | 0.48 | 92 | 1005.8 |
| 20260507112011 | 7 | 360 | 1.6 | 3.2 | 0.00 | 2.44 | 0.48 | 94 | 1005.8 |
| 20260507111524 | 7 | 360 | 1.6 | 3.2 | 0.00 | 2.44 | 0.48 | 94 | 1005.8 |
| 20260507111003 | 7 | 360 | 1.6 | 3.2 | 0.00 | 2.44 | 0.48 | 93 | 1005.7 |
| 20260507110503 | 7 | 360 | 1.6 | 3.2 | 0.00 | 2.44 | 0.48 | 94 | 1005.5 |
| 20260507110005 | 7 | 360 | 1.6 | 3.2 | 0.00 | 2.44 | 0.48 | 94 | 1005.7 |
| 20260507105503 | 7 | 360 | 0.0 | 3.2 | 0.00 | 2.44 | 0.48 | 94 | 1005.8 |
| 20260507105004 | 6 | 360 | 0.0 | 3.2 | 0.00 | 2.44 | 0.48 | 94 | 1005.9 |
| 20260507104512 | 6 | 360 | 0.0 | 3.2 | 0.00 | 2.44 | 0.48 | 94 | 1005.7 |
| 20260507104006 | 6 | 360 | 0.0 | 3.2 | 0.00 | 2.44 | 0.48 | 94 | 1005.7 |
| 20260507103507 | 6 | 360 | 1.6 | 3.2 | 0.00 | 2.44 | 0.48 | 94 | 1005.6 |
| 20260507103016 | 6 | 360 | 0.0 | 4.8 | 0.00 | 2.44 | 0.48 | 94 | 1005.5 |
| 20260507102507 | 6 | 360 | 1.6 | 4.8 | 0.00 | 2.44 | 0.48 | 94 | 1005.4 |
| 20260507102010 | 6 | 360 | 0.0 | 4.8 | 0.00 | 2.44 | 0.48 | 94 | 1005.4 |
| 20260507101531 | 6 | 360 | 0.0 | 4.8 | 0.00 | 2.44 | 0.48 | 95 | 1005.5 |
| 20260507101009 | 6 | 360 | 0.0 | 4.8 | 0.00 | 2.44 | 0.48 | 95 | 1005.5 |
| 20260507100507 | 6 | 360 | 1.6 | 4.8 | 0.00 | 2.44 | 0.48 | 95 | 1005.6 |
| 20260507100023 | 6 | 360 | 0.0 | 3.2 | 0.00 | 2.44 | 0.48 | 95 | 1005.4 |
| 20260507095511 | 6 | 360 | 0.0 | 3.2 | 0.00 | 2.44 | 0.48 | 95 | 1005.3 |
| 20260507095002 | 6 | 360 | 0.0 | 3.2 | 0.00 | 2.44 | 0.48 | 95 | 1005.1 |
| 20260507094507 | 6 | 360 | 1.6 | 3.2 | 0.00 | 2.44 | 0.48 | 95 | 1005.1 |
| 20260507094005 | 6 | 360 | 0.0 | 3.2 | 0.00 | 2.44 | 0.48 | 95 | 1005.2 |
| 20260507093506 | 6 | 360 | 0.0 | 3.2 | 0.00 | 2.44 | 0.48 | 95 | 1005.3 |
| 20260507093015 | 6 | 360 | 0.0 | 3.2 | 0.00 | 2.44 | 0.48 | 95 | 1005.4 |
| 20260507092506 | 6 | 360 | 0.0 | 3.2 | 0.03 | 2.44 | 0.48 | 95 | 1005.4 |
| 20260507092011 | 6 | 360 | 0.0 | 3.2 | 0.03 | 2.44 | 0.48 | 95 | 1005.3 |
| 20260507091520 | 6 | 360 | 0.0 | 3.2 | 0.03 | 2.44 | 0.48 | 95 | 1005.5 |
| 20260507091009 | 6 | 360 | 0.0 | 3.2 | 0.03 | 2.44 | 0.48 | 95 | 1005.6 |
| 20260507090508 | 6 | 360 | 0.0 | 3.2 | 0.03 | 2.44 | 0.48 | 95 | 1005.1 |
| 20260507090034 | 6 | 360 | 0.0 | 0.0 | 0.03 | 2.44 | 0.48 | 95 | 1004.8 |
| 20260507085508 | 6 | 360 | 0.0 | 0.0 | 0.03 | 2.44 | 0.48 | 95 | 1004.8 |
| 20260507085009 | 6 | 360 | 0.0 | 0.0 | 0.03 | 2.44 | 0.48 | 95 | 1004.5 |
| 20260507084534 | 6 | 360 | 0.0 | 3.2 | 0.03 | 2.44 | 0.48 | 95 | 1004.5 |
| 20260507084009 | 6 | 360 | 0.0 | 3.2 | 0.03 | 2.44 | 0.48 | 95 | 1004.8 |
| 20260507083505 | 6 | 360 | 0.0 | 3.2 | 0.03 | 2.44 | 0.48 | 95 | 1005.0 |
| 20260507083010 | 6 | 360 | 0.0 | 3.2 | 0.03 | 2.44 | 0.48 | 95 | 1005.3 |
| 20260507082507 | 6 | 360 | 0.0 | 3.2 | 0.00 | 2.41 | 0.46 | 95 | 1005.2 |
| 20260507082007 | 6 | 360 | 0.0 | 3.2 | 0.00 | 2.41 | 0.46 | 95 | 1005.2 |
| 20260507081520 | 6 | 360 | 0.0 | 3.2 | 0.00 | 2.41 | 0.46 | 95 | 1005.2 |
| 20260507081007 | 6 | 360 | 0.0 | 3.2 | 0.00 | 2.41 | 0.46 | 94 | 1005.3 |
| 20260507080510 | 6 | 360 | 0.0 | 3.2 | 0.00 | 2.41 | 0.46 | 94 | 1005.4 |
| 20260507080027 | 6 | 360 | 0.0 | 3.2 | 0.00 | 2.41 | 0.46 | 94 | 1005.4 |
| 20260507075509 | 6 | 360 | 0.0 | 3.2 | 0.00 | 2.41 | 0.46 | 93 | 1005.2 |
| 20260507075010 | 6 | 360 | 0.0 | 3.2 | 0.00 | 2.41 | 0.46 | 94 | 1005.0 |
| 20260507074537 | 7 | 360 | 0.0 | 3.2 | 0.00 | 2.41 | 0.46 | 94 | 1004.8 |
| 20260507074011 | 7 | 360 | 0.0 | 3.2 | 0.00 | 2.41 | 0.46 | 94 | 1004.8 |
| 20260507073510 | 7 | 360 | 0.0 | 3.2 | 0.00 | 2.41 | 0.46 | 94 | 1005.0 |
| 20260507073024 | 7 | 360 | 0.0 | 3.2 | 0.00 | 2.41 | 0.46 | 94 | 1004.9 |
| 20260507072510 | 7 | 360 | 0.0 | 3.2 | 0.00 | 2.41 | 0.46 | 93 | 1005.0 |
| 20260507072009 | 7 | 360 | 0.0 | 3.2 | 0.00 | 2.41 | 0.46 | 93 | 1005.0 |
| 20260507071503 | 7 | 360 | 0.0 | 3.2 | 0.00 | 2.41 | 0.46 | 93 | 1004.7 |
| 20260507071003 | 7 | 360 | 1.6 | 6.4 | 0.00 | 2.41 | 0.46 | 93 | 1004.7 |
| 20260507070503 | 7 | 360 | 1.6 | 6.4 | 0.00 | 2.41 | 0.46 | 93 | 1004.6 |
| 20260507070010 | 7 | 360 | 1.6 | 8.0 | 0.00 | 2.41 | 0.46 | 93 | 1004.4 |
| 20260507065503 | 7 | 360 | 1.6 | 8.0 | 0.03 | 2.41 | 0.46 | 93 | 1004.6 |
| 20260507065004 | 7 | 360 | 3.2 | 9.7 | 0.03 | 2.41 | 0.46 | 93 | 1004.6 |
| 20260507064504 | 7 | 360 | 1.6 | 9.7 | 0.03 | 2.41 | 0.46 | 93 | 1004.7 |
| 20260507064003 | 7 | 360 | 3.2 | 9.7 | 0.05 | 2.41 | 0.46 | 93 | 1004.7 |
| 20260507063504 | 7 | 360 | 1.6 | 4.8 | 0.08 | 2.41 | 0.46 | 93 | 1004.7 |
| 20260507063006 | 7 | 360 | 1.6 | 4.8 | 0.08 | 2.41 | 0.46 | 93 | 1004.3 |
| 20260507062503 | 7 | 360 | 1.6 | 4.8 | 0.10 | 2.41 | 0.46 | 93 | 1004.4 |
| 20260507062002 | 7 | 360 | 0.0 | 6.4 | 0.15 | 2.41 | 0.46 | 93 | 1004.3 |
| 20260507061504 | 7 | 360 | 3.2 | 8.0 | 0.18 | 2.41 | 0.46 | 93 | 1004.3 |
| 20260507061004 | 7 | 360 | 3.2 | 8.0 | 0.20 | 2.41 | 0.46 | 93 | 1004.1 |
| 20260507060504 | 7 | 360 | 1.6 | 9.7 | 0.20 | 2.41 | 0.46 | 93 | 1004.1 |
| 20260507060004 | 7 | 360 | 3.2 | 14.5 | 0.23 | 2.41 | 0.46 | 93 | 1004.0 |
| 20260507055503 | 7 | 360 | 6.4 | 16.1 | 0.20 | 2.39 | 0.43 | 93 | 1004.1 |
| 20260507055003 | 7 | 360 | 3.2 | 16.1 | 0.20 | 2.39 | 0.43 | 94 | 1004.2 |
| 20260507054505 | 8 | 360 | 1.6 | 9.7 | 0.20 | 2.39 | 0.43 | 94 | 1004.5 |
| 20260507054003 | 8 | 360 | 3.2 | 8.0 | 0.20 | 2.36 | 0.41 | 94 | 1004.5 |
| 20260507053505 | 8 | 360 | 1.6 | 8.0 | 0.18 | 2.34 | 0.38 | 94 | 1004.4 |
| 20260507053005 | 8 | 360 | 4.8 | 6.4 | 0.20 | 2.34 | 0.38 | 94 | 1004.4 |
| 20260507052503 | 8 | 360 | 3.2 | 8.0 | 0.20 | 2.31 | 0.36 | 94 | 1004.6 |
| 20260507052005 | 8 | 360 | 1.6 | 9.7 | 0.15 | 2.26 | 0.30 | 94 | 1004.6 |
| 20260507051506 | 8 | 360 | 3.2 | 9.7 | 0.18 | 2.24 | 0.28 | 94 | 1004.6 |
| 20260507051002 | 8 | 360 | 3.2 | 8.0 | 0.23 | 2.21 | 0.25 | 94 | 1004.7 |
| 20260507050503 | 8 | 360 | 1.6 | 8.0 | 0.23 | 2.21 | 0.25 | 94 | 1004.3 |